| time (UTC) | temp F | wind direction | speed MPH | gust MPH | rain 1hr in | rain 24hr in | rain mn in | humidity % | barometer mb |
| 20260903031711 | 85 | 184 | 14.0 | 22.0 | 0.00 | 0.06 | 0.06 | 56 | 1006.1 |
| 20260903030710 | 85 | 169 | 13.0 | 25.0 | 0.00 | 0.06 | 0.06 | 56 | 1006.0 |
| 20260903025710 | 85 | 180 | 13.0 | 20.0 | 0.00 | 0.06 | 0.06 | 57 | 1005.9 |
| 20260903023711 | 85 | 159 | 10.0 | 18.0 | 0.00 | 0.06 | 0.06 | 58 | 1005.8 |
| 20260903022711 | 85 | 168 | 10.0 | 15.0 | 0.00 | 0.06 | 0.06 | 59 | 1005.8 |
| 20260903021711 | 85 | 184 | 9.0 | 14.0 | 0.00 | 0.06 | 0.06 | 60 | 1005.7 |
| 20260903020711 | 86 | 175 | 7.0 | 13.0 | 0.00 | 0.06 | 0.06 | 60 | 1005.6 |
| 20260903015711 | 86 | 166 | 9.0 | 13.0 | 0.00 | 0.06 | 0.06 | 60 | 1005.6 |
| 20260903013711 | 87 | 159 | 7.0 | 13.0 | 0.00 | 0.06 | 0.06 | 62 | 1005.3 |
| 20260903012712 | 87 | 158 | 7.0 | 12.0 | 0.00 | 0.06 | 0.06 | 63 | 1005.5 |
| 20260903011711 | 88 | 163 | 6.0 | 12.0 | 0.00 | 0.06 | 0.06 | 63 | 1005.4 |
| 20260903010710 | 89 | 113 | 5.0 | 10.0 | 0.00 | 0.06 | 0.06 | 64 | 1005.3 |
| 20260903005711 | 89 | 121 | 3.0 | 8.0 | 0.00 | 0.06 | 0.06 | 64 | 1005.4 |
| 20260903004710 | 90 | 119 | 4.0 | 9.0 | 0.00 | 0.06 | 0.06 | 62 | 1005.3 |
| 20260903003711 | 90 | 130 | 5.0 | 10.0 | 0.00 | 0.06 | 0.06 | 61 | 1005.3 |
| 20260903002711 | 91 | 133 | 6.0 | 9.0 | 0.00 | 0.06 | 0.06 | 60 | 1005.3 |
| 20260903001711 | 91 | 117 | 5.0 | 8.0 | 0.00 | 0.06 | 0.06 | 58 | 1005.2 |
| 20260903000710 | 91 | 115 | 4.0 | 8.0 | 0.00 | 0.06 | 0.06 | 57 | 1005.3 |
| 20260902235710 | 92 | 148 | 6.0 | 9.0 | 0.00 | 0.06 | 0.06 | 56 | 1005.5 |
| 20260902234710 | 92 | 101 | 4.0 | 9.0 | 0.00 | 0.06 | 0.06 | 57 | 1005.6 |
| 20260902233711 | 92 | 155 | 4.0 | 7.0 | 0.00 | 0.06 | 0.06 | 56 | 1005.6 |
| 20260902232711 | 92 | 139 | 3.0 | 6.0 | 0.00 | 0.06 | 0.06 | 56 | 1005.6 |
| 20260902231710 | 92 | 161 | 4.0 | 7.0 | 0.00 | 0.06 | 0.06 | 56 | 1005.8 |
| 20260902230710 | 92 | 157 | 3.0 | 5.0 | 0.00 | 0.06 | 0.06 | 56 | 1005.9 |
| 20260902225710 | 92 | 166 | 3.0 | 5.0 | 0.00 | 0.06 | 0.06 | 55 | 1005.9 |
| 20260902224710 | 93 | 175 | 2.0 | 7.0 | 0.00 | 0.06 | 0.06 | 55 | 1006.1 |
| 20260902223711 | 93 | 176 | 5.0 | 8.0 | 0.00 | 0.06 | 0.06 | 55 | 1006.2 |
| 20260902222711 | 93 | 150 | 5.0 | 12.0 | 0.00 | 0.06 | 0.06 | 54 | 1006.3 |
| 20260902221711 | 93 | 178 | 4.0 | 10.0 | 0.00 | 0.06 | 0.06 | 54 | 1006.5 |
| 20260902220711 | 93 | 166 | 6.0 | 9.0 | 0.00 | 0.06 | 0.06 | 54 | 1006.5 |
| 20260902195710 | 93 | 163 | 9.0 | 17.0 | 0.00 | 0.06 | 0.06 | 55 | 1007.7 |
| 20260902193710 | 92 | 215 | 8.0 | 16.0 | 0.00 | 0.06 | 0.06 | 53 | 1007.6 |
| 20260902191710 | 92 | 187 | 5.0 | 12.0 | 0.00 | 0.06 | 0.06 | 56 | 1007.6 |
| 20260902190712 | 91 | 214 | 10.0 | 12.0 | 0.00 | 0.06 | 0.06 | 54 | 1007.7 |
| 20260902175711 | 90 | 182 | 10.0 | 14.0 | 0.00 | 0.06 | 0.06 | 56 | 1008.2 |
| 20260902174711 | 90 | 202 | 7.0 | 14.0 | 0.00 | 0.06 | 0.06 | 57 | 1008.3 |
| 20260902171710 | 88 | 204 | 8.0 | 14.0 | 0.00 | 0.06 | 0.06 | 59 | 1008.3 |
| 20260902170710 | 87 | 184 | 10.0 | 14.0 | 0.00 | 0.06 | 0.06 | 59 | 1008.2 |
| 20260902165710 | 86 | 221 | 5.0 | 9.0 | 0.00 | 0.06 | 0.06 | 62 | 1008.4 |
| 20260902164710 | 86 | 205 | 6.0 | 9.0 | 0.00 | 0.06 | 0.06 | 62 | 1008.3 |
| 20260902162710 | 86 | 204 | 5.0 | 12.0 | 0.00 | 0.06 | 0.06 | 63 | 1008.3 |
| 20260902161710 | 85 | 210 | 7.0 | 13.0 | 0.00 | 0.06 | 0.06 | 63 | 1008.2 |
| 20260902160711 | 84 | 192 | 6.0 | 12.0 | 0.00 | 0.06 | 0.06 | 66 | 1008.3 |
| 20260902154710 | 82 | 200 | 6.0 | 12.0 | 0.00 | 0.06 | 0.06 | 68 | 1008.3 |
| 20260902152710 | 79 | 195 | 8.0 | 13.0 | 0.00 | 0.06 | 0.06 | 71 | 1008.3 |
| 20260902151710 | 77 | 224 | 5.0 | 7.0 | 0.00 | 0.06 | 0.06 | 75 | 1008.3 |
| 20260902145711 | 76 | 182 | 3.0 | 8.0 | 0.00 | 0.06 | 0.06 | 75 | 1008.5 |
| 20260902144711 | 75 | 182 | 3.0 | 6.0 | 0.00 | 0.06 | 0.06 | 76 | 1008.5 |
| 20260902143711 | 75 | 224 | 3.0 | 6.0 | 0.00 | 0.06 | 0.06 | 76 | 1008.5 |
| 20260902142710 | 75 | 188 | 2.0 | 7.0 | 0.00 | 0.06 | 0.06 | 76 | 1008.5 |
| 20260902140710 | 74 | 194 | 2.0 | 3.0 | 0.00 | 0.06 | 0.06 | 78 | 1008.6 |
| 20260902135711 | 73 | 213 | 2.0 | 3.0 | 0.00 | 0.06 | 0.06 | 78 | 1008.6 |
| 20260902134711 | 73 | 179 | 1.0 | 3.0 | 0.00 | 0.06 | 0.06 | 78 | 1008.5 |
| 20260902133711 | 73 | 192 | 2.0 | 5.0 | 0.00 | 0.06 | 0.06 | 77 | 1008.6 |
| 20260902132711 | 73 | 183 | 3.0 | 6.0 | 0.00 | 0.06 | 0.06 | 78 | 1008.6 |
| 20260902130710 | 72 | 192 | 4.0 | 7.0 | 0.00 | 0.06 | 0.06 | 78 | 1008.7 |
| 20260902125710 | 72 | 159 | 1.0 | 5.0 | 0.00 | 0.06 | 0.06 | 79 | 1008.7 |
| 20260902124710 | 72 | 163 | 2.0 | 7.0 | 0.00 | 0.06 | 0.06 | 79 | 1008.7 |
| 20260902123711 | 71 | 182 | 3.0 | 7.0 | 0.00 | 0.06 | 0.06 | 80 | 1008.6 |
| 20260902122710 | 71 | 173 | 5.0 | 8.0 | 0.00 | 0.06 | 0.06 | 80 | 1008.6 |
| 20260902121710 | 71 | 175 | 4.0 | 10.0 | 0.00 | 0.06 | 0.06 | 82 | 1008.6 |
| 20260902120711 | 70 | 184 | 5.0 | 9.0 | 0.00 | 0.06 | 0.06 | 84 | 1008.5 |
| 20260902115710 | 70 | 176 | 3.0 | 7.0 | 0.01 | 0.06 | 0.06 | 86 | 1008.5 |
| 20260902114711 | 70 | 148 | 1.0 | 2.0 | 0.06 | 0.06 | 0.06 | 86 | 1008.4 |
| 20260902113710 | 71 | 148 | 0.0 | 2.0 | 0.06 | 0.06 | 0.06 | 84 | 1008.3 |
| 20260902112710 | 71 | 146 | 0.0 | 3.0 | 0.06 | 0.06 | 0.06 | 83 | 1008.4 |
| 20260902111710 | 71 | 192 | 2.0 | 6.0 | 0.06 | 0.06 | 0.06 | 81 | 1008.5 |
| 20260902110711 | 72 | 185 | 5.0 | 6.0 | 0.06 | 0.06 | 0.06 | 79 | 1008.6 |
| 20260902105711 | 74 | 186 | 8.0 | 13.0 | 0.05 | 0.05 | 0.05 | 75 | 1008.7 |
| 20260902104711 | 75 | 220 | 8.0 | 16.0 | 0.00 | 0.00 | 0.00 | 69 | 1008.7 |
| 20260902103710 | 75 | 214 | 3.0 | 5.0 | 0.00 | 0.00 | 0.00 | 69 | 1008.7 |
| 20260902102711 | 75 | 224 | 2.0 | 5.0 | 0.00 | 0.00 | 0.00 | 67 | 1008.7 |
| 20260902101710 | 76 | 200 | 3.0 | 5.0 | 0.00 | 0.00 | 0.00 | 66 | 1008.5 |
| 20260902100711 | 76 | 213 | 3.0 | 5.0 | 0.00 | 0.00 | 0.00 | 66 | 1008.6 |
| 20260902094710 | 76 | 172 | 3.0 | 7.0 | 0.00 | 0.00 | 0.00 | 65 | 1008.6 |
| 20260902093711 | 76 | 185 | 2.0 | 3.0 | 0.00 | 0.00 | 0.00 | 65 | 1008.5 |
| 20260902091711 | 74 | 186 | 9.0 | 15.0 | 0.00 | 0.00 | 0.00 | 71 | 1008.5 |
| 20260902090711 | 73 | 183 | 1.0 | 7.0 | 0.00 | 0.00 | 0.00 | 77 | 1008.5 |
| 20260902085711 | 73 | 44 | 1.0 | 3.0 | 0.00 | 0.00 | 0.00 | 81 | 1008.5 |
| 20260902084711 | 73 | 64 | 2.0 | 3.0 | 0.00 | 0.00 | 0.00 | 80 | 1008.6 |
| 20260902083711 | 74 | 56 | 2.0 | 3.0 | 0.00 | 0.00 | 0.00 | 80 | 1008.7 |
| 20260902082710 | 74 | 86 | 2.0 | 3.0 | 0.00 | 0.00 | 0.00 | 79 | 1008.8 |
| 20260902081710 | 74 | 105 | 3.0 | 6.0 | 0.00 | 0.00 | 0.00 | 79 | 1008.9 |
| 20260902080710 | 74 | 77 | 3.0 | 7.0 | 0.00 | 0.00 | 0.00 | 79 | 1009.0 |
| 20260902075710 | 74 | 36 | 5.0 | 9.0 | 0.00 | 0.00 | 0.00 | 79 | 1009.1 |
| 20260902074711 | 75 | 50 | 3.0 | 7.0 | 0.00 | 0.01 | 0.00 | 77 | 1009.4 |
| 20260902073710 | 76 | 48 | 4.0 | 9.0 | 0.00 | 0.01 | 0.00 | 76 | 1009.4 |
| 20260902072710 | 77 | 135 | 3.0 | 8.0 | 0.00 | 0.01 | 0.00 | 74 | 1009.3 |
| 20260902071711 | 77 | 80 | 5.0 | 13.0 | 0.00 | 0.01 | 0.00 | 74 | 1009.4 |
| 20260902070711 | 78 | 42 | 4.0 | 6.0 | 0.00 | 0.01 | 0.00 | 72 | 1009.4 |
| 20260902064711 | 79 | 302 | 3.0 | 8.0 | 0.00 | 0.01 | 0.00 | 71 | 1009.5 |
| 20260902063711 | 79 | 332 | 2.0 | 9.0 | 0.00 | 0.01 | 0.00 | 70 | 1009.3 |
| 20260902062710 | 80 | 40 | 6.0 | 13.0 | 0.00 | 0.01 | 0.00 | 71 | 1009.5 |
| 20260902061710 | 80 | 309 | 6.0 | 14.0 | 0.00 | 0.01 | 0.00 | 65 | 1008.9 |
| 20260902055710 | 77 | 238 | 3.0 | 7.0 | 0.00 | 0.01 | 0.00 | 78 | 1008.5 |
| 20260902054710 | 77 | 56 | 1.0 | 5.0 | 0.00 | 0.01 | 0.00 | 83 | 1008.4 |
| 20260902053711 | 78 | 96 | 0.0 | 1.0 | 0.00 | 0.01 | 0.00 | 82 | 1008.3 |
| 20260902052710 | 78 | 96 | 0.0 | 2.0 | 0.00 | 0.01 | 0.00 | 82 | 1008.4 |
| 20260902051711 | 78 | 100 | 1.0 | 3.0 | 0.00 | 0.01 | 0.00 | 82 | 1008.3 |
| 20260902050711 | 79 | 140 | 2.0 | 5.0 | 0.00 | 0.01 | 0.00 | 82 | 1008.1 |
| 20260902045710 | 79 | 140 | 1.0 | 3.0 | 0.00 | 0.01 | 0.01 | 81 | 1008.3 |
| 20260902044711 | 79 | 61 | 4.0 | 8.0 | 0.00 | 0.01 | 0.01 | 81 | 1008.1 |
| 20260902043710 | 80 | 100 | 3.0 | 8.0 | 0.00 | 0.01 | 0.01 | 81 | 1008.4 |
| 20260902042710 | 80 | 73 | 5.0 | 9.0 | 0.00 | 0.01 | 0.01 | 81 | 1008.4 |
| 20260902041710 | 80 | 63 | 2.0 | 8.0 | 0.00 | 0.01 | 0.01 | 81 | 1008.5 |
| 20260902035711 | 80 | 334 | 5.0 | 8.0 | 0.00 | 0.01 | 0.01 | 81 | 1008.9 |
| 20260902033710 | 81 | 101 | 1.0 | 3.0 | 0.00 | 0.01 | 0.01 | 81 | 1008.5 |